Year,Month,Day,Hour,Minute,Value (Times are PST for insolation in W/m^2)
2016,01,31,00,00,0.00
2016,01,31,00,01,0.00
2016,01,31,00,02,0.00
2016,01,31,00,03,0.00
2016,01,31,00,04,0.00
2016,01,31,00,05,0.00
2016,01,31,00,06,0.00
2016,01,31,00,07,0.00
2016,01,31,00,08,0.00
2016,01,31,00,09,0.00
2016,01,31,00,10,0.00
2016,01,31,00,11,0.00
2016,01,31,00,12,0.00
2016,01,31,00,13,0.00
2016,01,31,00,14,0.00
2016,01,31,00,15,0.00
2016,01,31,00,16,0.00
2016,01,31,00,17,0.00
2016,01,31,00,18,0.00
2016,01,31,00,19,0.00
2016,01,31,00,20,0.00
2016,01,31,00,21,0.00
2016,01,31,00,22,0.00
2016,01,31,00,23,0.00
2016,01,31,00,24,0.00
2016,01,31,00,25,0.00
2016,01,31,00,26,0.00
2016,01,31,00,27,0.00
2016,01,31,00,28,0.00
2016,01,31,00,29,0.00
2016,01,31,00,30,0.00
2016,01,31,00,31,0.00
2016,01,31,00,32,0.00
2016,01,31,00,33,0.00
2016,01,31,00,34,0.00
2016,01,31,00,35,0.00
2016,01,31,00,36,0.00
2016,01,31,00,37,0.00
2016,01,31,00,38,0.00
2016,01,31,00,39,0.00
2016,01,31,00,40,0.00
2016,01,31,00,41,0.00
2016,01,31,00,42,0.00
2016,01,31,00,43,0.00
2016,01,31,00,44,0.00
2016,01,31,00,45,0.00
2016,01,31,00,46,0.00
2016,01,31,00,47,0.00
2016,01,31,00,48,0.00
2016,01,31,00,49,0.00
2016,01,31,00,50,0.00
2016,01,31,00,51,0.00
2016,01,31,00,52,0.00
2016,01,31,00,53,0.00
2016,01,31,00,54,0.00
2016,01,31,00,55,0.00
2016,01,31,00,56,0.00
2016,01,31,00,57,0.00
2016,01,31,00,58,0.00
2016,01,31,00,59,0.00
2016,01,31,01,00,0.00
2016,01,31,01,01,0.00
2016,01,31,01,02,0.00
2016,01,31,01,03,0.00
2016,01,31,01,04,0.00
2016,01,31,01,05,0.00
2016,01,31,01,06,0.00
2016,01,31,01,07,0.00
2016,01,31,01,08,0.00
2016,01,31,01,09,0.00
2016,01,31,01,10,0.00
2016,01,31,01,11,0.00
2016,01,31,01,12,0.00
2016,01,31,01,13,0.00
2016,01,31,01,14,0.00
2016,01,31,01,15,0.00
2016,01,31,01,16,0.00
2016,01,31,01,17,0.00
2016,01,31,01,18,0.00
2016,01,31,01,19,0.00
2016,01,31,01,20,0.00
2016,01,31,01,21,0.00
2016,01,31,01,22,0.00
2016,01,31,01,23,0.00
2016,01,31,01,24,0.00
2016,01,31,01,25,0.00
2016,01,31,01,26,0.00
2016,01,31,01,27,0.00
2016,01,31,01,28,0.00
2016,01,31,01,29,0.00
2016,01,31,01,30,0.00
2016,01,31,01,31,0.00
2016,01,31,01,32,0.00
2016,01,31,01,33,0.00
2016,01,31,01,34,0.00
2016,01,31,01,35,0.00
2016,01,31,01,36,0.00
2016,01,31,01,37,0.00
2016,01,31,01,38,0.00
2016,01,31,01,39,0.00
2016,01,31,01,40,0.00
2016,01,31,01,41,0.00
2016,01,31,01,42,0.00
2016,01,31,01,43,0.00
2016,01,31,01,44,0.00
2016,01,31,01,45,0.00
2016,01,31,01,46,0.00
2016,01,31,01,47,0.00
2016,01,31,01,48,0.00
2016,01,31,01,49,0.00
2016,01,31,01,50,0.00
2016,01,31,01,51,0.00
2016,01,31,01,52,0.00
2016,01,31,01,53,0.00
2016,01,31,01,54,0.00
2016,01,31,01,55,0.00
2016,01,31,01,56,0.00
2016,01,31,01,57,0.00
2016,01,31,01,58,0.00
2016,01,31,01,59,0.00
2016,01,31,02,00,0.00
2016,01,31,02,01,0.00
2016,01,31,02,02,0.00
2016,01,31,02,03,0.00
2016,01,31,02,04,0.00
2016,01,31,02,05,0.00
2016,01,31,02,06,0.00
2016,01,31,02,07,0.00
2016,01,31,02,08,0.00
2016,01,31,02,09,0.00
2016,01,31,02,10,0.00
2016,01,31,02,11,0.00
2016,01,31,02,12,0.00
2016,01,31,02,13,0.00
2016,01,31,02,14,0.00
2016,01,31,02,15,0.00
2016,01,31,02,16,0.00
2016,01,31,02,17,0.00
2016,01,31,02,18,0.00
2016,01,31,02,19,0.00
2016,01,31,02,20,0.00
2016,01,31,02,21,0.00
2016,01,31,02,22,0.00
2016,01,31,02,23,0.00
2016,01,31,02,24,0.00
2016,01,31,02,25,0.00
2016,01,31,02,26,0.00
2016,01,31,02,27,0.00
2016,01,31,02,28,0.00
2016,01,31,02,29,0.00
2016,01,31,02,30,0.00
2016,01,31,02,31,0.00
2016,01,31,02,32,0.00
2016,01,31,02,33,0.00
2016,01,31,02,34,0.00
2016,01,31,02,35,0.00
2016,01,31,02,36,0.00
2016,01,31,02,37,0.00
2016,01,31,02,38,0.00
2016,01,31,02,39,0.00
2016,01,31,02,40,0.00
2016,01,31,02,41,0.00
2016,01,31,02,42,0.00
2016,01,31,02,43,0.00
2016,01,31,02,44,0.00
2016,01,31,02,45,0.00
2016,01,31,02,46,0.00
2016,01,31,02,47,0.00
2016,01,31,02,48,0.00
2016,01,31,02,49,0.00
2016,01,31,02,50,0.00
2016,01,31,02,51,0.00
2016,01,31,02,52,0.00
2016,01,31,02,53,0.00
2016,01,31,02,54,0.00
2016,01,31,02,55,0.00
2016,01,31,02,56,0.00
2016,01,31,02,57,0.00
2016,01,31,02,58,0.00
2016,01,31,02,59,0.00
2016,01,31,03,00,0.00
2016,01,31,03,01,0.00
2016,01,31,03,02,0.00
2016,01,31,03,03,0.00
2016,01,31,03,04,0.00
2016,01,31,03,05,0.00
2016,01,31,03,06,0.00
2016,01,31,03,07,0.00
2016,01,31,03,08,0.00
2016,01,31,03,09,0.00
2016,01,31,03,10,0.00
2016,01,31,03,11,0.00
2016,01,31,03,12,0.00
2016,01,31,03,13,0.00
2016,01,31,03,14,0.00
2016,01,31,03,15,0.00
2016,01,31,03,16,0.00
2016,01,31,03,17,0.00
2016,01,31,03,18,0.00
2016,01,31,03,19,0.00
2016,01,31,03,20,0.00
2016,01,31,03,21,0.00
2016,01,31,03,22,0.00
2016,01,31,03,23,0.00
2016,01,31,03,24,0.00
2016,01,31,03,25,0.00
2016,01,31,03,26,0.00
2016,01,31,03,27,0.00
2016,01,31,03,28,0.00
2016,01,31,03,29,0.00
2016,01,31,03,30,0.00
2016,01,31,03,31,0.00
2016,01,31,03,32,0.00
2016,01,31,03,33,0.00
2016,01,31,03,34,0.00
2016,01,31,03,35,0.00
2016,01,31,03,36,0.00
2016,01,31,03,37,0.00
2016,01,31,03,38,0.00
2016,01,31,03,39,0.00
2016,01,31,03,40,0.00
2016,01,31,03,41,0.00
2016,01,31,03,42,0.00
2016,01,31,03,43,0.00
2016,01,31,03,44,0.00
2016,01,31,03,45,0.00
2016,01,31,03,49,0.00
2016,01,31,03,50,0.00
2016,01,31,03,51,0.00
2016,01,31,03,52,0.00
2016,01,31,03,53,0.00
2016,01,31,03,54,0.00
2016,01,31,03,55,0.00
2016,01,31,03,56,0.00
2016,01,31,03,57,0.00
2016,01,31,03,58,0.00
2016,01,31,03,59,0.00
2016,01,31,04,00,0.00
2016,01,31,04,01,0.00
2016,01,31,04,02,0.00
2016,01,31,04,03,0.00
2016,01,31,04,04,0.00
2016,01,31,04,05,0.00
2016,01,31,04,06,0.00
2016,01,31,04,07,0.00
2016,01,31,04,08,0.00
2016,01,31,04,09,0.00
2016,01,31,04,10,0.00
2016,01,31,04,11,0.00
2016,01,31,04,12,0.00
2016,01,31,04,13,0.00
2016,01,31,04,14,0.00
2016,01,31,04,15,0.00
2016,01,31,04,16,0.00
2016,01,31,04,17,0.00
2016,01,31,04,18,0.00
2016,01,31,04,19,0.00
2016,01,31,04,20,0.00
2016,01,31,04,21,0.00
2016,01,31,04,22,0.00
2016,01,31,04,23,0.00
2016,01,31,04,24,0.00
2016,01,31,04,25,0.00
2016,01,31,04,26,0.00
2016,01,31,04,27,0.00
2016,01,31,04,28,0.00
2016,01,31,04,29,0.00
2016,01,31,04,30,0.00
2016,01,31,04,31,0.00
2016,01,31,04,32,0.00
2016,01,31,04,33,0.00
2016,01,31,04,34,0.00
2016,01,31,04,35,0.00
2016,01,31,04,36,0.00
2016,01,31,04,37,0.00
2016,01,31,04,38,0.00
2016,01,31,04,39,0.00
2016,01,31,04,40,0.00
2016,01,31,04,41,0.00
2016,01,31,04,42,0.00
2016,01,31,04,43,0.00
2016,01,31,04,44,0.00
2016,01,31,04,45,0.00
2016,01,31,04,46,0.00
2016,01,31,04,47,0.00
2016,01,31,04,48,0.00
2016,01,31,04,49,0.00
2016,01,31,04,50,0.00
2016,01,31,04,51,0.00
2016,01,31,04,52,0.00
2016,01,31,04,53,0.00
2016,01,31,04,54,0.00
2016,01,31,04,55,0.00
2016,01,31,04,56,0.00
2016,01,31,04,57,0.00
2016,01,31,04,58,0.00
2016,01,31,04,59,0.00
2016,01,31,05,00,0.00
2016,01,31,05,01,0.00
2016,01,31,05,02,0.00
2016,01,31,05,03,0.00
2016,01,31,05,04,0.00
2016,01,31,05,05,0.00
2016,01,31,05,06,0.00
2016,01,31,05,07,0.00
2016,01,31,05,08,0.00
2016,01,31,05,09,0.00
2016,01,31,05,10,0.00
2016,01,31,05,11,0.00
2016,01,31,05,12,0.00
2016,01,31,05,13,0.00
2016,01,31,05,14,0.00
2016,01,31,05,15,0.00
2016,01,31,05,16,0.00
2016,01,31,05,17,0.00
2016,01,31,05,18,0.00
2016,01,31,05,19,0.00
2016,01,31,05,20,0.00
2016,01,31,05,21,0.00
2016,01,31,05,22,0.00
2016,01,31,05,23,0.00
2016,01,31,05,24,0.00
2016,01,31,05,25,0.00
2016,01,31,05,26,0.00
2016,01,31,05,27,0.00
2016,01,31,05,28,0.00
2016,01,31,05,29,0.00
2016,01,31,05,30,0.00
2016,01,31,05,31,0.00
2016,01,31,05,32,0.00
2016,01,31,05,33,0.00
2016,01,31,05,34,0.00
2016,01,31,05,35,0.00
2016,01,31,05,36,0.00
2016,01,31,05,37,0.00
2016,01,31,05,38,0.00
2016,01,31,05,39,0.00
2016,01,31,05,40,0.00
2016,01,31,05,41,0.00
2016,01,31,05,42,0.00
2016,01,31,05,43,0.00
2016,01,31,05,44,0.00
2016,01,31,05,45,0.00
2016,01,31,05,46,0.00
2016,01,31,05,47,0.00
2016,01,31,05,48,0.00
2016,01,31,05,49,0.00
2016,01,31,05,50,0.00
2016,01,31,05,51,0.00
2016,01,31,05,52,0.00
2016,01,31,05,53,0.00
2016,01,31,05,54,0.00
2016,01,31,05,55,0.00
2016,01,31,05,56,0.00
2016,01,31,05,57,0.00
2016,01,31,05,58,0.00
2016,01,31,05,59,0.00
2016,01,31,06,00,0.00
2016,01,31,06,01,0.00
2016,01,31,06,02,0.00
2016,01,31,06,03,0.00
2016,01,31,06,04,0.00
2016,01,31,06,05,0.00
2016,01,31,06,06,0.00
2016,01,31,06,07,0.00
2016,01,31,06,08,0.00
2016,01,31,06,09,0.00
2016,01,31,06,10,0.00
2016,01,31,06,11,0.00
2016,01,31,06,12,0.00
2016,01,31,06,13,0.00
2016,01,31,06,14,0.00
2016,01,31,06,15,0.00
2016,01,31,06,16,0.00
2016,01,31,06,17,0.00
2016,01,31,06,18,0.00
2016,01,31,06,19,0.00
2016,01,31,06,20,0.00
2016,01,31,06,21,0.00
2016,01,31,06,22,0.00
2016,01,31,06,23,0.00
2016,01,31,06,24,0.00
2016,01,31,06,25,0.00
2016,01,31,06,26,0.00
2016,01,31,06,27,0.00
2016,01,31,06,28,0.00
2016,01,31,06,29,0.00
2016,01,31,06,30,0.00
2016,01,31,06,31,0.00
2016,01,31,06,32,0.00
2016,01,31,06,33,0.00
2016,01,31,06,34,0.00
2016,01,31,06,35,0.00
2016,01,31,06,36,0.00
2016,01,31,06,37,0.00
2016,01,31,06,38,0.00
2016,01,31,06,39,0.00
2016,01,31,06,40,0.00
2016,01,31,06,41,0.00
2016,01,31,06,42,0.00
2016,01,31,06,43,0.00
2016,01,31,06,44,0.00
2016,01,31,06,45,0.00
2016,01,31,06,46,0.00
2016,01,31,06,47,0.00
2016,01,31,06,48,0.00
2016,01,31,06,49,0.00
2016,01,31,06,50,0.00
2016,01,31,06,51,0.00
2016,01,31,06,52,0.00
2016,01,31,06,53,0.00
2016,01,31,06,54,0.00
2016,01,31,06,55,0.00
2016,01,31,06,56,0.00
2016,01,31,06,57,0.00
2016,01,31,06,58,0.00
2016,01,31,06,59,0.00
2016,01,31,07,00,0.00
2016,01,31,07,01,0.00
2016,01,31,07,02,0.00
2016,01,31,07,03,0.00
2016,01,31,07,04,0.00
2016,01,31,07,05,0.00
2016,01,31,07,06,0.00
2016,01,31,07,07,0.00
2016,01,31,07,08,0.00
2016,01,31,07,09,0.00
2016,01,31,07,10,0.00
2016,01,31,07,11,0.00
2016,01,31,07,12,0.00
2016,01,31,07,13,0.00
2016,01,31,07,14,0.00
2016,01,31,07,15,0.00
2016,01,31,07,16,0.00
2016,01,31,07,17,0.00
2016,01,31,07,18,0.00
2016,01,31,07,19,0.00
2016,01,31,07,20,0.00
2016,01,31,07,21,0.00
2016,01,31,07,22,0.00
2016,01,31,07,23,0.00
2016,01,31,07,24,0.00
2016,01,31,07,25,0.00
2016,01,31,07,26,0.00
2016,01,31,07,27,0.00
2016,01,31,07,28,0.00
2016,01,31,07,29,0.00
2016,01,31,07,30,0.00
2016,01,31,07,31,0.00
2016,01,31,07,32,0.00
2016,01,31,07,33,0.00
2016,01,31,07,34,0.00
2016,01,31,07,35,0.00
2016,01,31,07,36,0.00
2016,01,31,07,37,0.00
2016,01,31,07,38,0.00
2016,01,31,07,39,0.00
2016,01,31,07,40,0.00
2016,01,31,07,41,0.00
2016,01,31,07,42,0.00
2016,01,31,07,43,0.00
2016,01,31,07,44,0.00
2016,01,31,07,45,0.00
2016,01,31,07,46,0.00
2016,01,31,07,47,0.00
2016,01,31,07,48,0.00
2016,01,31,07,49,0.00
2016,01,31,07,50,0.00
2016,01,31,07,51,0.00
2016,01,31,07,52,0.00
2016,01,31,07,53,0.00
2016,01,31,07,54,0.00
2016,01,31,07,55,0.00
2016,01,31,07,56,4.50
2016,01,31,07,57,5.00
2016,01,31,07,58,5.00
2016,01,31,07,59,5.00
2016,01,31,08,00,5.00
2016,01,31,08,01,6.90
2016,01,31,08,02,7.00
2016,01,31,08,03,7.00
2016,01,31,08,04,8.90
2016,01,31,08,05,9.00
2016,01,31,08,06,10.90
2016,01,31,08,07,11.90
2016,01,31,08,08,12.00
2016,01,31,08,09,13.90
2016,01,31,08,10,14.00
2016,01,31,08,11,14.00
2016,01,31,08,12,14.00
2016,01,31,08,13,14.00
2016,01,31,08,14,15.90
2016,01,31,08,15,16.00
2016,01,31,08,16,17.90
2016,01,31,08,17,18.00
2016,01,31,08,18,19.00
2016,01,31,08,19,20.90
2016,01,31,08,20,21.00
2016,01,31,08,21,21.00
2016,01,31,08,22,22.90
2016,01,31,08,23,23.00
2016,01,31,08,24,23.00
2016,01,31,08,25,24.90
2016,01,31,08,26,25.00
2016,01,31,08,27,26.00
2016,01,31,08,28,26.00
2016,01,31,08,29,27.90
2016,01,31,08,30,29.90
2016,01,31,08,31,30.00
2016,01,31,08,32,31.90
2016,01,31,08,33,33.00
2016,01,31,08,34,33.00
2016,01,31,08,35,34.80
2016,01,31,08,36,36.90
2016,01,31,08,37,38.90
2016,01,31,08,38,40.00
2016,01,31,08,39,40.00
2016,01,31,08,40,40.00
2016,01,31,08,41,40.00
2016,01,31,08,42,40.00
2016,01,31,08,43,40.00
2016,01,31,08,44,40.00
2016,01,31,08,45,40.00
2016,01,31,08,46,40.00
2016,01,31,08,47,40.00
2016,01,31,08,48,41.90
2016,01,31,08,49,42.00
2016,01,31,08,50,43.90
2016,01,31,08,51,44.00
2016,01,31,08,52,44.00
2016,01,31,08,53,44.00
2016,01,31,08,54,45.90
2016,01,31,08,55,46.00
2016,01,31,08,56,47.00
2016,01,31,08,57,48.90
2016,01,31,08,58,49.00
2016,01,31,08,59,49.00
2016,01,31,09,00,49.00
2016,01,31,09,01,49.00
2016,01,31,09,02,50.90
2016,01,31,09,03,53.80
2016,01,31,09,04,55.90
2016,01,31,09,05,59.80
2016,01,31,09,06,62.70
2016,01,31,09,07,64.90
2016,01,31,09,08,66.90
2016,01,31,09,09,67.00
2016,01,31,09,10,65.10
2016,01,31,09,11,62.20
2016,01,31,09,12,60.20
2016,01,31,09,13,58.10
2016,01,31,09,14,56.10
2016,01,31,09,15,54.10
2016,01,31,09,16,54.00
2016,01,31,09,17,53.10
2016,01,31,09,18,53.00
2016,01,31,09,19,51.10
2016,01,31,09,20,49.10
2016,01,31,09,21,49.00
2016,01,31,09,22,49.00
2016,01,31,09,23,47.20
2016,01,31,09,24,47.00
2016,01,31,09,25,47.00
2016,01,31,09,26,46.10
2016,01,31,09,27,46.00
2016,01,31,09,28,44.10
2016,01,31,09,29,42.10
2016,01,31,09,30,40.10
2016,01,31,09,31,39.10
2016,01,31,09,32,39.00
2016,01,31,09,33,39.00
2016,01,31,09,34,37.20
2016,01,31,09,35,38.90
2016,01,31,09,36,40.00
2016,01,31,09,37,40.00
2016,01,31,09,38,41.90
2016,01,31,09,39,42.00
2016,01,31,09,40,43.90
2016,01,31,09,41,45.90
2016,01,31,09,42,46.90
2016,01,31,09,43,48.80
2016,01,31,09,44,50.90
2016,01,31,09,45,52.90
2016,01,31,09,46,53.00
2016,01,31,09,47,53.00
2016,01,31,09,48,51.20
2016,01,31,09,49,51.00
2016,01,31,09,50,51.00
2016,01,31,09,51,51.00
2016,01,31,09,52,53.80
2016,01,31,09,53,54.00
2016,01,31,09,54,54.00
2016,01,31,09,55,55.90
2016,01,31,09,56,57.80
2016,01,31,09,57,61.80
2016,01,31,09,58,62.00
2016,01,31,09,59,63.00
2016,01,31,10,00,62.10
2016,01,31,10,01,62.00
2016,01,31,10,02,62.00
2016,01,31,10,03,62.90
2016,01,31,10,04,63.00
2016,01,31,10,05,64.90
2016,01,31,10,06,65.00
2016,01,31,10,07,65.00
2016,01,31,10,08,65.00
2016,01,31,10,09,63.10
2016,01,31,10,10,62.00
2016,01,31,10,11,60.10
2016,01,31,10,12,58.10
2016,01,31,10,13,56.10
2016,01,31,10,14,56.00
2016,01,31,10,15,54.10
2016,01,31,10,16,55.90
2016,01,31,10,17,56.00
2016,01,31,10,18,57.90
2016,01,31,10,19,58.00
2016,01,31,10,20,59.90
2016,01,31,10,21,60.00
2016,01,31,10,22,60.00
2016,01,31,10,23,61.90
2016,01,31,10,24,63.00
2016,01,31,10,25,68.70
2016,01,31,10,26,75.30
2016,01,31,10,27,85.50
2016,01,31,10,28,94.60
2016,01,31,10,29,99.80
2016,01,31,10,30,103.80
2016,01,31,10,31,104.00
2016,01,31,10,32,104.00
2016,01,31,10,33,104.00
2016,01,31,10,34,104.00
2016,01,31,10,35,104.90
2016,01,31,10,36,110.70
2016,01,31,10,37,113.80
2016,01,31,10,38,114.00
2016,01,31,10,39,122.60
2016,01,31,10,40,123.00
2016,01,31,10,41,123.00
2016,01,31,10,42,118.50
2016,01,31,10,43,119.80
2016,01,31,10,44,120.00
2016,01,31,10,45,120.00
2016,01,31,10,46,120.90
2016,01,31,10,47,124.80
2016,01,31,10,48,127.70
2016,01,31,10,49,133.70
2016,01,31,10,50,134.90
2016,01,31,10,51,135.00
2016,01,31,10,52,134.10
2016,01,31,10,53,127.70
2016,01,31,10,54,121.60
2016,01,31,10,55,118.30
2016,01,31,10,56,118.00
2016,01,31,10,57,114.20
2016,01,31,10,58,113.10
2016,01,31,10,59,111.20
2016,01,31,11,00,111.00
2016,01,31,11,01,111.00
2016,01,31,11,02,109.10
2016,01,31,11,03,107.10
2016,01,31,11,04,108.80
2016,01,31,11,05,109.00
2016,01,31,11,06,112.60
2016,01,31,11,07,115.80
2016,01,31,11,08,120.80
2016,01,31,11,09,127.60
2016,01,31,11,10,137.90
2016,01,31,11,11,145.30
2016,01,31,11,12,155.50
2016,01,31,11,13,156.00
2016,01,31,11,14,166.40
2016,01,31,11,15,155.60
2016,01,31,11,16,149.30
2016,01,31,11,17,163.40
2016,01,31,11,18,160.20
2016,01,31,11,19,158.10
2016,01,31,11,20,168.40
2016,01,31,11,21,173.50
2016,01,31,11,22,180.30
2016,01,31,11,23,172.40
2016,01,31,11,24,163.40
2016,01,31,11,25,162.10
2016,01,31,11,26,164.90
2016,01,31,11,27,170.70
2016,01,31,11,28,180.00
2016,01,31,11,29,172.90
2016,01,31,11,30,162.50
2016,01,31,11,31,144.90
2016,01,31,11,32,128.80
2016,01,31,11,33,120.40
2016,01,31,11,34,113.70
2016,01,31,11,35,107.30
2016,01,31,11,36,104.30
2016,01,31,11,37,102.10
2016,01,31,11,38,100.20
2016,01,31,11,39,100.00
2016,01,31,11,40,101.90
2016,01,31,11,41,102.00
2016,01,31,11,42,103.80
2016,01,31,11,43,102.10
2016,01,31,11,44,95.30
2016,01,31,11,45,86.40
2016,01,31,11,46,77.40
2016,01,31,11,47,74.20
2016,01,31,11,48,74.00
2016,01,31,11,49,75.80
2016,01,31,11,50,80.70
2016,01,31,11,51,87.30
2016,01,31,11,52,88.00
2016,01,31,11,53,97.50
2016,01,31,11,54,99.90
2016,01,31,11,55,93.70
2016,01,31,11,56,93.00
2016,01,31,11,57,77.80
2016,01,31,11,58,77.00
2016,01,31,11,59,82.40
2016,01,31,12,00,89.60
2016,01,31,12,01,99.00
2016,01,31,12,02,112.30
2016,01,31,12,03,133.90
2016,01,31,12,04,135.00
2016,01,31,12,05,135.00
2016,01,31,12,06,434.20
2016,01,31,12,07,412.10
2016,01,31,12,08,460.70
2016,01,31,12,09,393.80
2016,01,31,12,10,323.50
2016,01,31,12,11,267.90
2016,01,31,12,12,266.80
2016,01,31,12,13,230.90
2016,01,31,12,14,200.60
2016,01,31,12,15,208.00
2016,01,31,12,16,230.90
2016,01,31,12,17,265.20
2016,01,31,12,18,267.00
2016,01,31,12,19,298.70
2016,01,31,12,20,302.00
2016,01,31,12,21,138.20
2016,01,31,12,22,127.20
2016,01,31,12,23,128.00
2016,01,31,12,24,131.80
2016,01,31,12,25,128.40
2016,01,31,12,26,175.70
2016,01,31,12,27,151.30
2016,01,31,12,28,148.00
2016,01,31,12,29,179.30
2016,01,31,12,30,204.40
2016,01,31,12,31,167.20
2016,01,31,12,32,162.10
2016,01,31,12,33,155.40
2016,01,31,12,34,162.20
2016,01,31,12,35,149.70
2016,01,31,12,36,148.10
2016,01,31,12,37,139.90
2016,01,31,12,38,147.60
2016,01,31,12,39,137.60
2016,01,31,12,40,153.20
2016,01,31,12,41,151.40
2016,01,31,12,42,157.30
2016,01,31,12,43,180.60
2016,01,31,12,44,242.70
2016,01,31,12,45,223.50
2016,01,31,12,46,221.00
2016,01,31,12,47,501.80
2016,01,31,12,48,543.80
2016,01,31,12,49,545.00
2016,01,31,12,50,570.20
2016,01,31,12,51,585.70
2016,01,31,12,52,600.30
2016,01,31,12,53,602.80
2016,01,31,12,54,603.00
2016,01,31,12,55,605.70
2016,01,31,12,56,543.00
2016,01,31,12,57,536.00
2016,01,31,12,58,299.00
2016,01,31,12,59,274.00
2016,01,31,13,00,255.10
2016,01,31,13,01,213.40
2016,01,31,13,02,193.70
2016,01,31,13,03,180.30
2016,01,31,13,04,163.70
2016,01,31,13,05,153.90
2016,01,31,13,06,146.40
2016,01,31,13,07,137.90
2016,01,31,13,08,128.00
2016,01,31,13,09,120.70
2016,01,31,13,10,113.70
2016,01,31,13,11,105.80
2016,01,31,13,12,100.50
2016,01,31,13,13,97.30
2016,01,31,13,14,93.40
2016,01,31,13,15,91.20
2016,01,31,13,16,88.30
2016,01,31,13,17,86.20
2016,01,31,13,18,84.20
2016,01,31,13,19,83.10
2016,01,31,13,20,81.20
2016,01,31,13,21,77.40
2016,01,31,13,22,76.10
2016,01,31,13,23,72.40
2016,01,31,13,24,70.20
2016,01,31,13,25,67.30
2016,01,31,13,26,65.10
2016,01,31,13,27,65.00
2016,01,31,13,28,63.20
2016,01,31,13,29,62.10
2016,01,31,13,30,60.20
2016,01,31,13,31,58.20
2016,01,31,13,32,56.20
2016,01,31,13,33,56.00
2016,01,31,13,34,54.20
2016,01,31,13,35,53.10
2016,01,31,13,36,53.00
2016,01,31,13,37,51.20
2016,01,31,13,38,49.20
2016,01,31,13,39,49.00
2016,01,31,13,40,47.20
2016,01,31,13,41,47.00
2016,01,31,13,42,47.00
2016,01,31,13,43,48.80
2016,01,31,13,44,50.80
2016,01,31,13,45,53.70
2016,01,31,13,46,55.80
2016,01,31,13,47,61.40
2016,01,31,13,48,64.70
2016,01,31,13,49,69.50
2016,01,31,13,50,75.40
2016,01,31,13,51,76.00
2016,01,31,13,52,76.00
2016,01,31,13,53,74.20
2016,01,31,13,54,72.20
2016,01,31,13,55,72.00
2016,01,31,13,56,72.00
2016,01,31,13,57,67.50
2016,01,31,13,58,63.40
2016,01,31,13,59,62.10
2016,01,31,14,00,62.00
2016,01,31,14,01,60.20
2016,01,31,14,02,60.00
2016,01,31,14,03,60.00
2016,01,31,14,04,61.80
2016,01,31,14,05,62.00
2016,01,31,14,06,62.00
2016,01,31,14,07,69.20
2016,01,31,14,08,75.40
2016,01,31,14,09,80.70
2016,01,31,14,10,81.00
2016,01,31,14,11,90.00
2016,01,31,14,12,91.00
2016,01,31,14,13,88.30
2016,01,31,14,14,83.50
2016,01,31,14,15,77.60
2016,01,31,14,16,74.30
2016,01,31,14,17,69.50
2016,01,31,14,18,65.40
2016,01,31,14,19,63.20
2016,01,31,14,20,62.10
2016,01,31,14,21,60.20
2016,01,31,14,22,60.00
2016,01,31,14,23,56.40
2016,01,31,14,24,54.10
2016,01,31,14,25,51.30
2016,01,31,14,26,49.20
2016,01,31,14,27,47.20
2016,01,31,14,28,46.10
2016,01,31,14,29,46.00
2016,01,31,14,30,44.20
2016,01,31,14,31,44.00
2016,01,31,14,32,42.20
2016,01,31,14,33,42.00
2016,01,31,14,34,40.20
2016,01,31,14,35,40.00
2016,01,31,14,36,41.80
2016,01,31,14,37,43.80
2016,01,31,14,38,45.80
2016,01,31,14,39,46.90
2016,01,31,14,40,48.80
2016,01,31,14,41,49.00
2016,01,31,14,42,50.80
2016,01,31,14,43,52.80
2016,01,31,14,44,53.90
2016,01,31,14,45,54.00
2016,01,31,14,46,55.80
2016,01,31,14,47,57.80
2016,01,31,14,48,59.80
2016,01,31,14,49,58.20
2016,01,31,14,50,58.00
2016,01,31,14,51,58.00
2016,01,31,14,52,59.80
2016,01,31,14,53,60.00
2016,01,31,14,54,61.80
2016,01,31,14,55,62.90
2016,01,31,14,56,68.40
2016,01,31,14,57,82.50
2016,01,31,14,58,89.40
2016,01,31,14,59,83.70
2016,01,31,15,00,83.00
2016,01,31,15,01,83.00
2016,01,31,15,02,90.20
2016,01,31,15,03,84.70
2016,01,31,15,04,84.00
2016,01,31,15,05,84.00
2016,01,31,15,06,84.00
2016,01,31,15,07,83.10
2016,01,31,15,08,83.90
2016,01,31,15,09,85.80
2016,01,31,15,10,86.00
2016,01,31,15,11,86.00
2016,01,31,15,12,84.20
2016,01,31,15,13,84.00
2016,01,31,15,14,83.10
2016,01,31,15,15,83.00
2016,01,31,15,16,81.20
2016,01,31,15,17,77.40
2016,01,31,15,18,76.10
2016,01,31,15,19,74.20
2016,01,31,15,20,72.20
2016,01,31,15,21,69.30
2016,01,31,15,22,67.20
2016,01,31,15,23,63.40
2016,01,31,15,24,63.00
2016,01,31,15,25,60.30
2016,01,31,15,26,56.40
2016,01,31,15,27,53.30
2016,01,31,15,28,49.40
2016,01,31,15,29,46.30
2016,01,31,15,30,42.40
2016,01,31,15,31,39.30
2016,01,31,15,32,39.00
2016,01,31,15,33,35.40
2016,01,31,15,34,33.20
2016,01,31,15,35,33.00
2016,01,31,15,36,32.10
2016,01,31,15,37,32.00
2016,01,31,15,38,30.10
2016,01,31,15,39,30.00
2016,01,31,15,40,30.00
2016,01,31,15,41,31.80
2016,01,31,15,42,32.00
2016,01,31,15,43,32.00
2016,01,31,15,44,32.00
2016,01,31,15,45,32.00
2016,01,31,15,46,32.00
2016,01,31,15,47,32.90
2016,01,31,15,48,33.00
2016,01,31,15,49,32.10
2016,01,31,15,50,28.40
2016,01,31,15,51,26.20
2016,01,31,15,52,26.00
2016,01,31,15,53,25.10
2016,01,31,15,54,25.00
2016,01,31,15,55,23.20
2016,01,31,15,56,23.00
2016,01,31,15,57,23.00
2016,01,31,15,58,23.00
2016,01,31,15,59,23.00
2016,01,31,16,00,21.20
2016,01,31,16,01,21.00
2016,01,31,16,02,21.00
2016,01,31,16,03,19.20
2016,01,31,16,04,19.00
2016,01,31,16,05,19.00
2016,01,31,16,06,19.00
2016,01,31,16,07,18.10
2016,01,31,16,08,18.00
2016,01,31,16,09,18.00
2016,01,31,16,10,18.00
2016,01,31,16,11,18.00
2016,01,31,16,12,18.00
2016,01,31,16,13,18.00
2016,01,31,16,14,18.00
2016,01,31,16,15,18.00
2016,01,31,16,16,18.00
2016,01,31,16,17,18.00
2016,01,31,16,18,18.00
2016,01,31,16,19,18.00
2016,01,31,16,20,18.90
2016,01,31,16,21,19.00
2016,01,31,16,22,19.00
2016,01,31,16,23,20.80
2016,01,31,16,24,21.00
2016,01,31,16,25,21.00
2016,01,31,16,26,21.00
2016,01,31,16,27,21.00
2016,01,31,16,28,21.00
2016,01,31,16,29,22.80
2016,01,31,16,30,23.00
2016,01,31,16,31,21.20
2016,01,31,16,32,19.20
2016,01,31,16,33,18.10
2016,01,31,16,34,16.20
2016,01,31,16,35,14.20
2016,01,31,16,36,14.00
2016,01,31,16,37,12.20
2016,01,31,16,38,12.00
2016,01,31,16,39,11.10
2016,01,31,16,40,11.00
2016,01,31,16,41,11.00
2016,01,31,16,42,11.00
2016,01,31,16,43,11.00
2016,01,31,16,44,9.20
2016,01,31,16,45,9.00
2016,01,31,16,46,7.20
2016,01,31,16,47,7.00
2016,01,31,16,48,7.00
2016,01,31,16,49,7.00
2016,01,31,16,50,5.20
2016,01,31,16,51,5.00
2016,01,31,16,52,5.00
2016,01,31,16,53,5.00
2016,01,31,16,54,5.00
2016,01,31,16,55,0.50
2016,01,31,16,56,0.00
2016,01,31,16,57,0.00
2016,01,31,16,58,0.00
2016,01,31,16,59,0.00
2016,01,31,17,00,0.00
2016,01,31,17,01,0.00
2016,01,31,17,02,0.00
2016,01,31,17,03,0.00
2016,01,31,17,04,0.00
2016,01,31,17,05,0.00
2016,01,31,17,06,0.00
2016,01,31,17,07,0.00
2016,01,31,17,08,0.00
2016,01,31,17,09,0.00
2016,01,31,17,10,0.00
2016,01,31,17,11,0.00
2016,01,31,17,12,0.00
2016,01,31,17,13,0.00
2016,01,31,17,14,0.00
2016,01,31,17,15,0.00
2016,01,31,17,16,0.00
2016,01,31,17,17,0.00
2016,01,31,17,18,0.00
2016,01,31,17,19,0.00
2016,01,31,17,20,0.00
2016,01,31,17,21,0.00
2016,01,31,17,22,0.00
2016,01,31,17,23,0.00
2016,01,31,17,24,0.00
2016,01,31,17,25,0.00
2016,01,31,17,26,0.00
2016,01,31,17,27,0.00
2016,01,31,17,28,0.00
2016,01,31,17,29,0.00
2016,01,31,17,30,0.00
2016,01,31,17,31,0.00
2016,01,31,17,32,0.00
2016,01,31,17,33,0.00
2016,01,31,17,34,0.00
2016,01,31,17,35,0.00
2016,01,31,17,36,0.00
2016,01,31,17,37,0.00
2016,01,31,17,38,0.00
2016,01,31,17,39,0.00